Weather History for Szeged, Hungary

Change the Weather History Date:

Wednesday, February 20, 2013

  Actual Average (LRAR) Record (LRAR)
Temperature  
Mean Temperature 38 °F -  
Max Temperature 44 °F 48 °F 59 °F (2006)
Min Temperature 31 °F 32 °F 8 °F (2009)
Degree Days  
Heating Degree Days 28    
Moisture  
Dew Point 30 °F    
Average Humidity 74    
Maximum Humidity 100    
Minimum Humidity 46    
Precipitation  
Precipitation 0.00 in 0.04 in - ()
Sea Level Pressure  
Sea Level Pressure 30.00 in    
Wind  
Wind Speed 6 mph ()    
Max Wind Speed 12 mph    
Max Gust Speed -    
Visibility 5.2 miles    
Events Rain , Snow    
Averages and records for this station are not official NWS values.
T = Trace of Precipitation, MM = Missing Value Source: Averaged Metar Reports

Daily Weather History Graph

Daily Weather History Graph

Search for Another Location

Airport:

Trip Planner

Search our weather history database for the weather conditions in past years. The results will help you decide how hot, cold, wet, or windy it might be!

Date:

Astronomy

Feb. 20, 2013 Rise Set
Actual Time 6:34 AM CET 5:12 PM CET
Civil Twilight 6:04 AM CET 5:43 PM CET
Nautical Twilight 5:29 AM CET 6:18 PM CET
Astronomical Twilight 4:54 AM CET 6:53 PM CET
Moon 12:08 PM CET (2/20) 2:51 AM CET (2/20)
Length of Visible Light 11h 39m
Length of Day
10h 38m
Waxing Gibbous, 74% of the Moon is Illuminated
Feb 20
Waxing Gibbous
Feb 25
Full
Mar 4
Last Quarter
Mar 11
New
Mar 19
First Quarter

Hourly Weather History & Observations

Time (CET) Temp. Windchill Dew Point Humidity Pressure Visibility Wind Dir Wind Speed Gust Speed Precip Events Conditions
1:45 AM 35.6 °F 31.7 °F 30.2 °F 81% 29.92 in 5.0 mi SSW 4.6 mph - N/A   Overcast
2:45 AM 35.6 °F 30.7 °F 30.2 °F 81% 29.92 in 5.0 mi SW 5.8 mph - N/A   Mostly Cloudy
3:45 AM 33.8 °F 27.7 °F 30.2 °F 87% 29.92 in 4.3 mi West 6.9 mph - N/A   Mostly Cloudy
4:45 AM 35.6 °F 31.7 °F 32.0 °F 87% 29.92 in 3.7 mi WNW 4.6 mph - N/A   Mostly Cloudy
4:56 AM 35.6 °F 32.8 °F 32.0 °F 87% 29.95 in 3.7 mi West 3.5 mph - N/A Rain Light Rain
5:15 AM 33.8 °F 28.6 °F 32.0 °F 93% 29.95 in 3.7 mi SW 5.8 mph - N/A Rain Light Rain
5:45 AM 35.6 °F 29.9 °F 33.8 °F 93% 29.95 in 3.1 mi West 6.9 mph - N/A Rain , Snow Light Rain
6:15 AM 33.8 °F 29.6 °F 33.8 °F 100% 29.95 in 3.1 mi WSW 4.6 mph - N/A Rain , Snow Light Rain
6:45 AM 33.8 °F 29.6 °F 33.8 °F 100% 29.95 in 2.5 mi SW 4.6 mph - N/A   Mostly Cloudy
7:00 AM 34 °F - 33 °F 96% 29.96 in 2 mi SW 4.5 mph - -   Light Ice Pellets
7:15 AM 33.8 °F 27.7 °F 33.8 °F 100% 29.95 in 2.5 mi SSW 6.9 mph - N/A   Overcast
7:45 AM 33.8 °F 27.7 °F 33.8 °F 100% 29.98 in 2.5 mi SSW 6.9 mph - N/A   Overcast
8:15 AM 35.6 °F 29.9 °F 33.8 °F 93% 29.98 in 3.7 mi WSW 6.9 mph - N/A   Overcast
8:45 AM 35.6 °F 29.2 °F 33.8 °F 93% 29.98 in 5.0 mi West 8.1 mph - N/A   Mostly Cloudy
9:15 AM 37.4 °F 30.8 °F 33.8 °F 87% 29.98 in 6.2 mi West 9.2 mph - N/A   Overcast
9:45 AM 37.4 °F 30.8 °F 33.8 °F 87% 29.98 in 6.2 mi West 9.2 mph - N/A   Overcast
10:15 AM 39.2 °F 32.5 °F 32.0 °F 75% 30.01 in 6.2 mi West 10.4 mph - N/A   Mostly Cloudy
10:45 AM 39.2 °F 32.5 °F 33.8 °F 81% 30.01 in 6.2 mi West 10.4 mph - N/A   Mostly Cloudy
11:15 AM 41.0 °F 35.2 °F 32.0 °F 70% 30.01 in 6.2 mi West 9.2 mph - N/A   Mostly Cloudy
11:45 AM 41.0 °F 34.7 °F 32.0 °F 70% 30.01 in 6.2 mi West 10.4 mph - N/A   Scattered Clouds
12:15 PM 41.0 °F 34.7 °F 28.4 °F 61% 30.01 in 6.2 mi West 10.4 mph - N/A   Mostly Cloudy
1:00 PM 42 °F - 28 °F 46% 30.01 in 22 mi West 8.9 mph - -   Partly Cloudy
1:15 PM 42.8 °F 37.0 °F 28.4 °F 57% 30.01 in 6.2 mi West 10.4 mph - N/A   Partly Cloudy
1:45 PM 42.8 °F 38.0 °F 26.6 °F 53% 29.98 in 6.2 mi WSW 8.1 mph - N/A   Partly Cloudy
2:15 PM 44.6 °F 39.2 °F 26.6 °F 49% 29.98 in 6.2 mi WSW 10.4 mph - N/A   Scattered Clouds
2:45 PM 42.8 °F 37.5 °F 26.6 °F 53% 30.01 in 6.2 mi WNW 9.2 mph - N/A   Scattered Clouds
3:15 PM 42.8 °F 37.5 °F 26.6 °F 53% 30.01 in 6.2 mi WNW 9.2 mph - N/A   Scattered Clouds
3:45 PM 41.0 °F 34.3 °F 26.6 °F 57% 30.01 in 6.2 mi NW 11.5 mph - N/A   Mostly Cloudy
4:15 PM 41.0 °F 35.8 °F 26.6 °F 57% 30.01 in 6.2 mi WNW 8.1 mph - N/A   Scattered Clouds
4:45 PM 41.0 °F 35.8 °F 24.8 °F 53% 30.01 in 6.2 mi WNW 8.1 mph - N/A   Mostly Cloudy
5:45 PM 39.2 °F 33.6 °F 24.8 °F 56% 30.04 in 6.2 mi WNW 8.1 mph - N/A   Mostly Cloudy
6:15 PM 37.4 °F 32.1 °F 26.6 °F 65% 30.04 in 6.2 mi WNW 6.9 mph - N/A   Mostly Cloudy
6:45 PM 37.4 °F 30.8 °F 26.6 °F 65% 30.04 in 6.2 mi WNW 9.2 mph - N/A   Scattered Clouds
7:00 PM 38 °F - 27 °F 53% 30.06 in 25 mi WNW 8.9 mph - -   Partly Cloudy
7:15 PM 37.4 °F 32.8 °F 28.4 °F 70% 30.06 in 6.2 mi WNW 5.8 mph - N/A   Scattered Clouds
7:45 PM 37.4 °F 32.8 °F 28.4 °F 70% 30.06 in 6.2 mi WNW 5.8 mph - N/A   Mostly Cloudy
8:15 PM 35.6 °F 29.2 °F 26.6 °F 70% 30.06 in 6.2 mi WNW 8.1 mph - N/A   Mostly Cloudy
8:45 PM 35.6 °F 29.9 °F 26.6 °F 70% 30.06 in 6.2 mi NW 6.9 mph - N/A   Mostly Cloudy
9:45 PM 33.8 °F 27.7 °F 24.8 °F 70% 30.06 in - NW 6.9 mph - N/A   Clear
10:45 PM 32.0 °F 27.5 °F 26.6 °F 80% 30.06 in - NW 4.6 mph - N/A   Clear